Starlink 33750

operational
NORAD ID: 63513 Int'l Des: 2025-071 Owner: SPXS Country: US Constellation: starlink
LEOCIRCULAR

Über Starlink 33750

Beschreibung wird geladen...

Live-Position

3D-Globus wird geladen...

Nächste Überflüge

Höhenverlauf

Altitude vs Time

uPlot chart will show altitude changes over time

Zweizeiliger Elementsatz

1 63513U 25071W 25350.91340348 .00008700 00000-0 30543-3 0 9993
2 63513 53.1566 164.5740 0001231 96.9690 263.1450 15.30211134 40072
Epoch: 16. Dez. 2025 • Age: 22 hours

Aktueller Status

Höhe 492.4 km
Geschwindigkeit 7.62 km/s
Subsatellitenpunkt -48.05°S, 84.15°E
Startdatum 7. Apr. 2025
Alter 0.6 years
Typ internet

Technische Details

Klassifizierung Payload
Masse 575.00 kg
Trockenmasse 530.00 kg
Gesamtmasse 575.00 kg
Länge 0.30 m
Durchmesser 4.10 m
Spannweite 29.00 m
Form Box + pan
Hersteller SPXS
Bus-Typ Starlink V2MO
Phasenstatus In Orbit
Besitzer/Staat SPXS/US

Große Konstellationen

Loading constellations...